Location: Battersea Observatory
(44.4318°N, 76.3841°W)
Time: 22:44:15
(UTC-04:00)

Tiros 1 despin weight - Pass Details

Date: 31 January 2022
Orbit: 592 x 639 km, 48.2° (Epoch: 25 May)

Event Time Altitude Azimuth Distance (km) Brightness Sun altitude
Rises 17:44:50 0° 283° (WNW) 2,878 ? -6.0°
Reaches altitude 10° 17:47:10 10° 288° (WNW) 1,981 ? -6.4°
Maximum altitude 17:51:39 54° 6° (N) 757 ? -7.2°
Drops below altitude 10° 17:56:12 10° 85° (E) 2,010 ? -8.0°
Enters shadow 17:56:18 - 85° (E) 2,053 ? -8.0°
Sets 17:58:35 0° 90° (E) 2,924 - -8.4°
